User: anonymous   Login
Location: Unspecified
(0.0000°N, 0.0000°E)
Time: 21:08:18
(UTC+00:00)
Language:

ONEWEB-0521 - Orbit

View from above orbital plane
View from above orbital plane
View from above satellite
View from above satellite

Ground track
Ground track

The orbit is defined by the following mean orbital elements,

1 54139U          26145.41797782 +.00000000 +00000-0 +13312-3 0 00001
2 54139  87.9161 309.4919 0002065  93.9276 266.2093 13.19725906    01
Epoch (UTC): 25 May 2026 10:01:53
Eccentricity: 0.0002065
inclination: 87.9161°
perigee height: 1184 km
apogee height: 1187 km
right ascension of ascending node: 309.4919°
argument of perigee: 93.9276°
revolutions per day: 13.19725906
mean anomaly at epoch: 266.2093°

The dashed part of the orbit path shows where the satellite is in the earth's shadow,  

DLR